Location: Unspecified
(0.0000°N, 0.0000°E)
Time: 13:57:54
(UTC+00:00)

Tiangong 2 - Pass Details

Date: 14 January 2018
Orbit: 384 x 390 km, 42.8° (Epoch: 17 January)

Event Time Altitude Azimuth Distance (km) Brightness Sun altitude
Exits shadow 04:35:42 19° 38° (NE) 974 3.2 -21.6°
Drops below altitude 10° 04:36:46 10° 40° (NE) 1,402 4.1 -21.4°
Sets 04:38:50 0° 42° (NE) 2,254 5.2 -20.9°
